Temperature
18 18 18 18 19 19 19 18 18 18 18 17 17 17 17 16 16 16 16 15 15 15 15 15 15 14 14 14 14 14 14 14 14 14 15 15 15 16 16 16 16 16 16
18 18 18 18 19 19 19 18 18 18 18 17 17 17 16 16 16 15 15 15 14 14 14 14 14 14 14 14 14 14 14 14 13 13 13 14 15 15 15 16 16 16 16
19 19 19 19 19 19 18 18 18 18 17 17 16 16 16 15 15 15 14 14 14 13 13 13 13 13 13 13 13 13 13 13 13 13 13 13 13 13 14 15 15 15 15
19 19 19 19 19 19 18 18 17 17 17 16 16 15 15 15 14 14 14 13 13 13 12 12 12 12 12 13 13 13 13 13 13 13 13 12 12 12 13 14 14 14 15
19 19 19 19 19 18 18 17 17 17 16 16 15 15 14 14 13 13 13 12 12 12 12 12 12 12 12 12 12 12 12 12 12 12 12 12 12 12 12 13 14 14 15
20 19 19 19 19 18 18 17 17 16 16 15 15 14 14 13 13 12 12 12 12 11 11 11 11 11 11 11 11 12 12 12 12 12 12 12 12 12 12 12 13 13 14
20 20 19 19 19 18 18 17 17 16 15 15 14 14 13 13 12 12 11 11 11 11 11 10 10 10 10 10 11 11 11 11 11 11 12 12 12 12 12 12 12 12 13
20 20 19 19 19 18 17 17 16 15 15 14 13 13 12 12 12 11 11 11 10 10 10 10 10 10 10 10 10 10 10 11 11 11 11 11 11 11 11 11 11 12 12
20 20 19 19 18 18 17 16 15 15 14 13 13 12 12 11 11 11 11 10 10 10 10 10 9 9 9 9 9 10 10 10 10 10 11 11 11 11 11 11 11 11 11
20 19 19 19 18 17 16 15 15 14 13 13 12 12 11 11 11 10 10 10 10 10 9 9 9 9 9 9 9 9 9 9 10 10 10 10 10 11 11 11 11 11 11
20 19 19 18 17 16 16 15 14 13 13 12 12 11 11 11 10 10 10 10 10 9 9 9 9 9 9 9 9 9 9 9 9 9 10 10 10 10 10 10 11 11 11
19 19 18 17 17 16 15 14 13 13 12 12 11 11 11 10 10 10 10 9 9 9 9 9 9 9 9 9 8 9 9 9 9 9 9 9 9 10 10 10 10 11 11
19 18 18 17 16 15 14 13 13 12 12 11 11 11 10 10 10 10 10 9 9 9 9 9 9 9 9 9 8 8 8 8 9 9 9 9 9 9 9 10 10 10 10
18 18 17 17 16 15 14 13 12 12 11 11 11 10 10 10 10 10 10 9 9 9 9 8 8 8 8 8 8 8 8 8 8 8 8 8 9 9 9 9 10 10 10
18 18 17 16 15 14 13 12 12 12 11 11 10 10 10 10 10 9 9 9 9 9 8 8 8 8 8 8 8 8 8 8 8 8 8 8 8 8 9 9 9 9 10
18 18 17 16 15 14 13 12 12 11 11 10 10 10 10 10 9 9 9 9 9 8 8 8 8 8 8 8 8 8 8 8 8 8 8 8 8 8 8 8 9 9 9
18 17 16 15 14 13 12 12 11 11 11 10 10 10 10 10 9 9 9 9 8 8 8 8 8 8 8 8 8 8 7 7 8 8 8 8 8 8 8 8 8 9 9
18 17 16 15 14 13 12 12 11 11 10 10 10 10 9 9 9 9 9 9 8 8 8 8 8 8 8 8 8 7 7 7 7 7 7 8 8 8 8 8 8 9 9
17 16 15 14 14 13 12 12 11 11 10 10 10 10 9 9 9 9 9 9 8 8 8 8 8 8 8 8 7 7 7 7 7 7 7 7 7 8 7 7 8 8 9
17 16 15 14 14 13 12 11 11 11 10 10 10 10 9 9 9 9 9 9 8 8 8 8 8 7 7 7 7 7 7 7 7 7 7 7 7 7 7 7 7 8 8
17 16 15 14 14 13 12 11 11 11 10 10 10 10 9 9 9 9 9 8 8 8 8 8 8 7 7 7 7 7 6 6 6 6 7 7 7 7 7 7 7 8 8
17 16 15 14 14 13 12 12 11 11 10 10 10 10 9 9 9 9 9 9 8 8 8 8 8 8 7 7 7 6 6 6 6 6 6 6 6 6 6 7 7 7 7
17 16 15 14 14 13 12 12 11 11 10 10 10 10 10 9 9 9 9 9 8 8 8 8 7 7 7 7 6 6 6 6 6 6 6 6 6 6 6 7 7 7 7
17 16 15 15 14 13 12 12 11 11 10 10 10 10 10 10 9 9 9 8 8 8 8 8 7 7 7 7 6 6 6 6 6 6 6 6 6 6 6 7 7 7 7
17 16 16 15 14 13 13 12 11 11 10 10 10 10 10 9 9 9 9 9 8 8 8 8 7 7 7 7 6 6 6 6 6 6 6 6 6 6 6 6 7 7 7
17 16 16 15 14 14 13 12 11 11 10 10 10 10 10 9 9 9 9 9 9 8 8 8 7 7 7 7 6 6 6 6 6 6 6 6 6 6 6 6 7 7 7
Wind_Speed
3 3 3 4 4 4 4 4 4 4 3 2 2 2 1 1 1 2 3 3 3 3 2 1 2 1 2 3 3 2 2 3 2 3 5 6 8 9 9 9 9 11 14
4 5 5 4 4 4 4 4 4 3 2 2 1 1 1 0 0 1 3 3 4 4 3 2 2 2 2 3 3 2 2 2 1 2 3 4 4 3 6 6 7 9 8
8 7 7 7 6 5 5 4 4 3 2 2 2 2 2 2 2 2 2 3 4 5 4 3 3 3 3 3 4 3 4 3 2 3 3 2 3 4 3 4 5 6 7
7 7 7 7 7 6 4 4 4 3 2 2 2 2 1 1 3 2 2 4 5 5 5 4 4 4 3 4 4 3 4 4 4 3 4 5 4 3 4 3 3 5 7
8 8 8 7 5 4 5 5 4 3 2 2 2 2 2 3 2 2 4 5 5 5 5 5 4 4 3 4 4 3 4 4 4 4 3 3 3 5 5 6 5 4 5
7 7 5 4 3 3 4 4 4 3 2 2 1 2 4 4 4 5 5 5 4 4 5 5 4 4 4 4 4 4 4 4 5 4 4 3 3 3 4 5 6 6 5
5 5 5 4 4 3 3 3 3 2 2 1 2 3 4 4 5 6 6 6 4 4 6 5 4 4 5 5 5 4 5 5 5 6 5 5 5 4 4 4 5 5 5
3 4 5 5 4 4 3 3 3 2 1 2 3 3 4 4 4 6 6 6 5 6 7 7 6 6 6 6 5 5 6 5 6 7 6 5 6 5 4 4 4 5 4
4 4 4 4 3 3 3 3 3 2 3 3 4 4 5 5 6 6 6 6 6 6 7 7 7 7 7 7 6 5 7 6 6 7 7 6 6 5 5 5 4 4 4
4 4 3 3 2 2 2 2 2 3 3 4 4 4 5 6 6 6 7 7 7 7 7 8 8 8 7 7 6 6 7 7 7 6 7 7 6 5 5 5 5 5 5
6 4 2 1 1 1 1 2 3 3 4 5 5 5 6 6 6 6 7 7 7 8 8 9 8 9 9 8 7 8 8 8 9 8 8 9 7 6 6 5 5 5 5
4 2 2 1 1 2 3 4 4 5 6 5 5 6 7 6 6 7 8 7 8 8 9 9 9 10 9 8 8 9 9 9 10 10 9 10 7 8 6 6 7 6 6
4 2 2 2 3 4 5 5 5 6 6 5 6 7 7 7 8 8 8 8 8 9 9 9 9 10 10 10 10 10 10 10 11 10 10 10 9 9 8 8 7 7 6
5 4 4 4 5 5 5 6 7 6 6 6 6 7 8 8 8 9 9 9 9 9 10 10 10 10 10 10 10 10 10 11 11 11 11 11 10 11 10 8 9 8 7
6 7 6 5 5 6 6 6 7 7 6 6 7 8 8 8 8 9 9 9 10 10 10 10 10 10 9 10 10 10 11 10 11 11 11 11 13 14 11 9 9 9 8
8 8 7 7 7 7 7 6 7 7 5 6 8 8 8 8 9 9 10 10 10 10 10 10 11 11 10 12 14 12 10 10 11 11 11 11 13 15 16 16 15 13 11
9 9 8 8 7 7 6 7 7 6 6 7 8 8 8 9 9 10 10 10 10 10 10 10 10 11 12 15 16 16 12 11 11 12 11 11 11 12 11 13 16 16 17
9 9 8 7 6 6 5 6 6 6 6 7 8 8 8 9 10 10 10 10 9 9 10 11 11 11 12 14 15 15 12 11 12 12 13 12 12 12 11 11 11 11 13
9 8 8 7 6 6 6 5 6 6 7 8 8 8 8 9 10 11 11 10 9 10 10 10 11 11 12 13 14 12 8 9 12 12 12 13 13 14 14 12 11 11 10
7 7 6 5 6 7 5 5 7 7 8 8 8 8 8 9 10 11 11 10 9 10 10 11 10 10 11 12 13 11 7 9 9 9 10 14 14 14 14 12 12 12 10
9 8 7 6 7 6 4 6 7 8 8 8 8 8 9 9 10 10 9 10 9 10 10 11 10 9 10 11 12 10 6 7 8 8 8 8 13 15 15 14 11 13 10
9 8 7 8 7 6 5 7 8 8 7 7 8 9 9 9 8 9 9 9 8 9 9 9 10 8 8 8 9 10 9 9 8 9 8 8 11 14 14 12 12 13 10
9 8 8 8 7 6 7 8 8 7 6 6 8 9 9 9 8 8 9 9 7 7 8 7 8 9 7 7 9 10 10 9 7 7 9 10 11 11 10 12 13 11 8
9 7 8 8 8 7 7 9 8 6 6 7 8 8 8 9 9 7 7 7 7 7 7 8 8 8 8 6 5 5 5 6 6 5 6 6 7 6 6 6 8 8 8
7 7 8 9 10 8 8 8 7 5 6 7 8 8 7 8 8 8 7 8 8 8 8 8 8 8 9 7 7 6 6 5 5 4 3 2 2 3 4 4 5 6 7
7 8 9 9 9 7 8 7 6 5 5 6 7 6 7 7 7 8 9 9 10 12 12 12 11 9 11 12 11 9 9 8 7 3 3 3 3 4 4 5 5 6 7
Wind_Direction
192 188 184 170 152 149 148 153 152 153 138 122 120 104 68 26 27 27 36 31 17 4 348 318 313 301 272 269 269 265 276 275 275 291 294 282 260 250 246 242 240 240 239
208 207 200 194 189 186 183 176 177 171 166 147 138 137 128 53 347 350 8 12 2 348 337 320 300 291 281 283 270 240 252 268 250 250 301 310 312 289 254 243 240 242 240
213 216 212 210 206 207 204 191 189 184 173 145 108 76 52 20 358 348 334 334 341 335 329 315 295 287 267 267 265 235 225 246 261 226 233 274 290 313 294 262 250 248 244
222 221 220 219 216 216 201 195 192 194 189 160 150 157 177 245 255 270 293 309 316 315 311 304 296 288 274 266 265 242 222 221 245 255 236 239 251 280 307 303 279 270 259
226 225 223 222 216 200 191 191 188 203 205 187 173 181 228 243 274 292 299 303 307 306 299 292 288 283 274 268 264 259 237 223 229 230 241 251 252 245 260 288 302 299 273
234 229 224 211 210 189 182 178 183 213 218 212 213 222 248 266 283 289 292 292 294 297 292 288 275 272 268 266 263 254 246 238 237 236 232 231 242 251 253 272 293 297 291
229 219 207 196 190 178 176 168 177 225 251 259 268 261 259 259 260 268 271 275 282 283 285 290 278 271 263 264 262 256 253 243 240 241 239 236 240 245 250 266 281 287 290
214 200 193 184 181 176 166 161 176 224 266 272 276 275 266 255 256 259 258 261 263 268 274 278 273 271 268 268 260 258 257 249 244 247 244 245 247 242 240 244 269 291 289
195 186 176 167 165 172 183 184 188 227 263 267 272 281 277 264 266 271 266 265 265 273 272 271 272 272 269 264 258 255 260 258 252 250 248 246 249 244 244 244 243 257 285
189 179 165 161 173 193 206 204 213 239 261 271 273 279 280 276 273 277 276 274 274 274 280 279 275 273 270 266 258 257 258 258 257 251 248 248 249 248 243 242 243 241 248
192 187 180 177 198 228 243 258 263 265 273 275 278 282 282 283 282 277 276 277 279 279 278 277 277 274 271 267 260 257 257 255 259 257 250 251 248 246 246 242 243 243 241
181 180 187 204 245 266 276 275 273 271 270 274 281 280 282 287 286 282 280 280 280 280 277 276 276 275 272 265 259 260 260 254 255 256 251 253 250 242 242 239 241 241 239
175 182 214 244 261 272 278 279 277 274 276 280 285 288 288 287 284 283 284 283 281 282 281 275 273 272 271 268 263 258 258 255 254 253 250 250 246 245 241 236 238 239 241
193 206 234 252 265 273 276 278 280 278 280 283 285 285 284 283 283 285 284 283 281 281 279 276 272 269 269 268 267 263 259 257 255 253 250 249 244 242 241 237 236 234 235
212 223 233 249 264 276 280 277 279 282 282 284 283 280 283 285 286 287 286 286 285 284 278 279 278 273 269 265 261 258 259 257 258 256 252 248 245 242 238 234 230 226 227
226 234 239 247 255 262 270 276 276 280 284 280 281 284 289 290 289 289 290 290 289 287 285 281 280 278 273 268 265 264 263 259 257 258 256 252 254 252 245 238 231 221 219
228 232 236 238 245 252 255 262 268 280 284 280 283 287 289 290 290 293 295 291 290 288 288 285 282 278 275 271 271 270 266 259 256 254 253 255 251 240 241 242 239 232 225
225 231 232 236 243 246 252 260 270 277 280 282 285 287 288 290 292 294 292 290 289 288 287 286 283 281 279 276 273 274 272 263 258 253 249 247 249 243 234 238 239 236 232
216 221 222 223 235 247 251 260 273 278 280 281 282 284 287 290 294 295 293 292 292 293 290 286 284 282 283 278 276 275 273 264 262 258 251 244 245 239 229 231 237 238 238
217 218 218 219 237 247 240 248 266 275 275 275 279 283 285 286 289 289 290 291 290 290 292 289 287 282 281 281 281 281 270 265 266 263 256 245 239 236 226 226 228 231 231
214 212 209 219 233 237 224 244 261 265 266 274 280 284 286 285 285 285 287 292 294 295 294 293 293 288 282 284 284 283 268 262 266 266 261 251 236 233 229 222 224 225 217
213 206 208 229 238 228 219 244 258 260 269 277 281 286 290 290 292 290 295 296 294 298 299 298 300 295 288 283 286 286 277 267 263 265 260 252 242 236 233 225 223 219 209
211 204 207 228 244 233 218 238 254 263 274 279 284 290 296 294 290 290 296 301 299 298 299 298 298 300 298 291 286 290 292 288 271 268 263 253 247 242 236 228 217 209 204
211 204 203 223 242 240 230 235 253 265 268 277 287 293 299 302 303 298 291 293 296 299 300 297 296 298 298 295 303 304 303 301 294 285 283 272 254 235 225 217 210 206 200
207 198 205 220 236 242 245 247 250 252 262 276 286 293 294 296 303 304 292 286 278 270 278 286 284 289 294 292 293 297 296 295 292 298 284 266 241 216 210 204 197 193 193
202 206 214 223 236 241 249 254 249 238 252 277 288 292 297 300 302 307 310 291 277 282 272 259 261 268 263 279 291 295 296 289 280 267 263 259 239 223 212 204 200 196 196
Height
1522 1523 1524 1525 1525 1526 1527 1528 1528 1529 1529 1530 1530 1529 1529 1528 1528 1527 1526 1525 1524 1523 1522 1522 1521 1520 1519 1519 1518 1517 1516 1515 1514 1512 1510 1509 1508 1507 1507 1508 1508 1510 1512
1521 1523 1524 1525 1525 1526 1527 1527 1528 1528 1529 1529 1529 1528 1527 1526 1526 1525 1524 1523 1521 1520 1519 1518 1517 1516 1516 1515 1514 1514 1512 1512 1511 1510 1508 1505 1504 1503 1502 1502 1503 1504 1505
1520 1522 1523 1524 1525 1525 1526 1527 1527 1528 1528 1527 1527 1526 1525 1524 1523 1522 1521 1519 1518 1516 1515 1514 1513 1512 1511 1511 1511 1510 1509 1508 1509 1508 1507 1505 1502 1500 1499 1498 1498 1499 1500
1519 1521 1522 1523 1524 1525 1525 1526 1526 1526 1526 1525 1525 1524 1523 1522 1520 1519 1517 1516 1514 1513 1511 1510 1509 1508 1507 1507 1506 1506 1505 1505 1505 1505 1504 1504 1502 1500 1497 1495 1495 1495 1495
1517 1519 1520 1521 1522 1523 1524 1524 1524 1524 1524 1523 1522 1521 1520 1519 1517 1515 1514 1512 1511 1509 1508 1506 1504 1503 1502 1502 1501 1501 1501 1500 1500 1500 1500 1499 1498 1497 1496 1492 1491 1491 1490
1515 1516 1518 1519 1520 1521 1521 1522 1522 1521 1521 1520 1519 1518 1517 1515 1513 1512 1510 1508 1507 1505 1504 1502 1500 1499 1498 1497 1497 1496 1496 1496 1496 1496 1496 1496 1495 1494 1493 1490 1488 1487 1486
1513 1514 1515 1517 1518 1518 1519 1519 1518 1518 1518 1517 1516 1515 1513 1511 1509 1508 1506 1504 1502 1501 1499 1497 1496 1494 1493 1492 1492 1491 1491 1491 1491 1491 1491 1491 1491 1490 1489 1488 1486 1484 1482
1511 1512 1513 1514 1515 1516 1517 1516 1516 1515 1515 1514 1513 1511 1509 1508 1506 1504 1502 1500 1498 1496 1494 1492 1491 1489 1488 1487 1486 1486 1486 1486 1485 1486 1486 1486 1486 1486 1485 1485 1484 1481 1479
1509 1511 1512 1513 1514 1514 1514 1514 1513 1513 1512 1511 1509 1508 1506 1504 1502 1499 1497 1495 1493 1491 1489 1487 1486 1484 1483 1482 1481 1480 1480 1480 1480 1480 1480 1480 1481 1481 1481 1481 1481 1480 1478
1508 1509 1510 1511 1512 1512 1512 1512 1511 1510 1509 1507 1506 1504 1502 1500 1497 1495 1493 1490 1488 1486 1484 1482 1481 1479 1478 1477 1475 1474 1474 1474 1474 1474 1474 1474 1475 1475 1476 1476 1476 1476 1476
1507 1508 1509 1510 1511 1510 1510 1509 1508 1507 1506 1504 1502 1500 1498 1496 1493 1491 1488 1486 1484 1481 1479 1477 1475 1474 1472 1471 1470 1469 1468 1468 1467 1467 1467 1468 1469 1469 1470 1470 1471 1471 1471
1506 1507 1508 1509 1509 1508 1507 1506 1505 1504 1502 1501 1499 1497 1494 1492 1489 1487 1484 1481 1479 1477 1474 1472 1470 1468 1467 1465 1464 1463 1462 1461 1461 1461 1461 1461 1462 1463 1464 1465 1465 1466 1467
1504 1506 1506 1507 1507 1506 1505 1504 1502 1501 1499 1497 1495 1493 1490 1488 1485 1482 1479 1477 1474 1471 1469 1466 1464 1462 1461 1459 1458 1457 1456 1455 1454 1454 1454 1454 1455 1456 1457 1458 1459 1461 1462
1503 1504 1505 1505 1504 1503 1502 1500 1499 1497 1496 1493 1491 1489 1486 1483 1480 1478 1475 1471 1468 1465 1463 1460 1458 1456 1454 1453 1452 1450 1449 1448 1448 1447 1447 1447 1448 1449 1450 1452 1453 1455 1456
1501 1502 1502 1502 1501 1500 1499 1497 1496 1494 1492 1489 1487 1485 1482 1479 1476 1473 1470 1466 1463 1460 1457 1454 1452 1450 1448 1446 1445 1444 1442 1442 1441 1440 1440 1441 1441 1442 1443 1445 1447 1449 1450
1498 1499 1500 1499 1498 1497 1496 1494 1492 1490 1488 1486 1483 1481 1478 1475 1471 1468 1464 1461 1457 1454 1451 1448 1446 1444 1442 1440 1438 1437 1435 1434 1433 1433 1433 1433 1434 1435 1436 1438 1440 1442 1444
1496 1497 1497 1496 1495 1494 1492 1491 1489 1487 1484 1482 1479 1477 1473 1470 1467 1463 1459 1455 1452 1448 1445 1443 1440 1437 1435 1434 1432 1430 1428 1427 1426 1425 1425 1426 1426 1427 1429 1431 1433 1435 1437
1493 1493 1493 1493 1492 1490 1489 1487 1485 1483 1481 1478 1476 1473 1469 1466 1462 1458 1455 1451 1447 1443 1440 1437 1434 1431 1429 1427 1425 1423 1421 1419 1418 1418 1417 1417 1418 1420 1421 1423 1425 1427 1430
1490 1490 1490 1489 1488 1487 1485 1484 1482 1480 1477 1475 1472 1469 1465 1461 1458 1454 1450 1446 1442 1438 1435 1431 1428 1425 1423 1421 1418 1416 1414 1412 1411 1410 1409 1409 1410 1411 1414 1416 1417 1420 1423
1486 1486 1486 1485 1484 1483 1482 1480 1478 1476 1473 1470 1467 1464 1461 1457 1453 1449 1445 1441 1438 1433 1430 1426 1423 1420 1417 1414 1412 1409 1407 1404 1403 1402 1402 1401 1402 1403 1406 1408 1410 1413 1416
1482 1482 1482 1481 1481 1479 1478 1476 1474 1471 1469 1466 1463 1460 1457 1453 1449 1445 1441 1437 1433 1429 1425 1421 1418 1415 1411 1408 1406 1403 1400 1398 1396 1395 1394 1394 1395 1396 1398 1400 1403 1406 1411
1478 1478 1478 1477 1477 1475 1474 1471 1469 1467 1465 1462 1459 1456 1453 1449 1445 1441 1437 1433 1429 1424 1420 1416 1413 1410 1407 1403 1400 1398 1395 1393 1391 1389 1388 1388 1388 1390 1392 1394 1397 1401 1405
1473 1474 1474 1473 1473 1471 1469 1467 1465 1463 1460 1458 1455 1451 1448 1445 1441 1437 1433 1429 1424 1420 1416 1412 1408 1405 1402 1399 1396 1393 1390 1388 1386 1384 1383 1382 1383 1384 1386 1389 1392 1395 1399
1469 1470 1470 1469 1469 1467 1465 1463 1461 1459 1456 1453 1450 1447 1444 1441 1437 1434 1429 1425 1420 1416 1412 1408 1405 1401 1398 1394 1391 1388 1386 1384 1382 1380 1379 1379 1379 1380 1382 1384 1387 1390 1393
1465 1466 1465 1465 1464 1463 1461 1459 1457 1454 1452 1449 1446 1443 1440 1437 1433 1430 1426 1421 1417 1413 1409 1405 1401 1397 1394 1391 1388 1385 1383 1381 1379 1377 1376 1376 1376 1377 1378 1381 1383 1386 1390
1461 1462 1461 1461 1460 1459 1457 1455 1453 1450 1448 1445 1442 1439 1436 1433 1429 1426 1422 1418 1415 1410 1406 1402 1398 1394 1391 1388 1385 1383 1380 1378 1377 1376 1374 1374 1374 1375 1376 1378 1380 1383 1386